1483833600.07,45472,3.06,72428.0,-25.19,-58.81,-59.63,0,*62
1483833601.3,45473,3.06,72430.5,-25.19,-58.81,-59.37,0,*62
1483833602.5,45474,3.06,72426.5,-25.19,-59.13,-59.79,0,*65
1483833603.71,45475,3.06,72428.8,-25.19,-59.29,-60.03,0,*6A
1483833604.94,45476,3.06,72428.5,-25.19,-58.81,-59.37,0,*67
1483833606.17,45477,3.06,72424.3,-25.19,-59.13,-59.63,0,*6D
1483833607.38,45478,3.06,72422.0,-25.19,-59.29,-59.79,0,*60
1483833608.58,45479,3.06,72414.8,-25.19,-59.13,-59.79,0,*68
1483833609.82,45480,3.06,72404.5,-25.19,-58.81,-59.29,0,*61
1483833611.05,45481,3.06,72422.3,-25.19,-58.81,-59.37,0,*6F
1483833612.28,45482,3.06,72418.0,-25.19,-58.81,-59.29,0,*63
1483833613.54,45483,3.06,72422.8,-25.19,-59.05,-59.63,0,*61
1483833614.77,45484,3.06,72428.8,-25.19,-59.13,-59.55,0,*64
1483833616.01,45485,3.06,72420.3,-25.21,-59.37,-59.87,0,*67
1483833617.24,45486,3.06,72428.5,-25.21,-59.13,-59.95,0,*61
1483833618.5,45487,3.06,72424.5,-25.19,-58.89,-59.55,0,*65
1483833619.73,45488,3.06,72428.3,-25.19,-58.81,-59.37,0,*66
1483833620.93,45489,3.06,72428.0,-25.19,-58.65,-59.37,0,*6D
1483833622.19,45490,3.06,72412.0,-25.21,-59.13,-59.71,0,*6C
1483833623.45,45491,3.06,72412.3,-25.19,-58.89,-59.55,0,*62
1483833624.7,45492,3.06,72414.5,-25.19,-58.89,-59.55,0,*61
1483833625.96,45493,3.06,72420.0,-25.19,-58.89,-59.55,0,*60
1483833627.22,45494,3.06,72422.8,-25.19,-59.05,-59.63,0,*67
1483833628.43,45495,3.06,72418.3,-25.19,-59.29,-59.79,0,*63
1483833629.63,45496,3.06,72416.5,-25.19,-59.13,-59.87,0,*68
1483833630.86,45497,3.06,72420.3,-25.19,-58.81,-59.29,0,*67
1483833632.12,45498,3.06,72420.0,-25.19,-59.05,-59.63,0,*6B
1483833633.36,45499,3.06,72422.5,-25.19,-58.89,-59.37,0,*6E
1483833634.56,45500,3.06,72422.3,-25.19,-58.65,-59.13,0,*6B
1483833635.8,45501,3.06,72424.3,-25.21,-58.73,-59.37,0,*60
1483833637.09,45502,3.06,72426.0,-25.21,-58.89,-59.63,0,*67
1483833638.29,45503,3.06,72424.0,-25.19,-59.13,-59.79,0,*64
1483833639.55,45504,3.06,72422.0,-25.19,-59.05,-59.55,0,*6A
1483833640.8,45505,3.06,72426.0,-25.19,-59.05,-59.55,0,*6B
1483833642.06,45506,3.06,72422.8,-25.21,-59.63,-59.95,0,*6F
1483833643.32,45507,3.06,72426.5,-25.19,-58.89,-59.55,0,*6C
1483833644.61,45508,3.06,72422.0,-25.21,-58.89,-59.47,0,*6B
1483833645.9,45509,3.06,72422.3,-25.21,-58.97,-59.47,0,*65
1483833647.17,45510,3.06,72416.0,-25.23,-58.89,-59.63,0,*66
1483833648.37,45511,3.06,72422.5,-25.19,-59.29,-59.79,0,*6E
1483833649.63,45512,3.06,72426.3,-25.21,-59.13,-59.71,0,*67
1483833650.9,45513,3.06,72424.5,-25.23,-58.97,-59.63,0,*6A
1483833652.19,45514,3.06,72422.5,-25.21,-58.89,-59.47,0,*66
1483833653.45,45515,3.06,72426.8,-25.21,-59.13,-59.71,0,*60
1483833654.71,45516,3.06,72424.0,-25.21,-59.21,-59.71,0,*62
1483833655.97,45517,3.06,72428.5,-25.21,-59.13,-59.63,0,*61
1483833657.2,45518,3.06,72428.8,-25.21,-59.21,-59.87,0,*65
1483833658.49,45519,3.06,72424.8,-25.21,-58.89,-59.47,0,*6B
1483833659.75,45520,3.06,72426.8,-25.21,-59.13,-59.71,0,*66
1483833661.02,45521,3.06,72424.5,-25.21,-58.97,-59.37,0,*68
1483833662.3,45522,3.06,72426.8,-25.21,-58.97,-59.71,0,*69
1483833663.57,45523,3.06,72430.5,-25.21,-59.13,-59.63,0,*66
1483833664.83,45524,3.06,72426.0,-25.21,-59.13,-59.71,0,*62
1483833666.12,45525,3.06,72426.3,-25.21,-58.89,-59.47,0,*64
1483833667.37,45526,3.06,72424.0,-25.21,-59.13,-59.71,0,*60
1483833668.63,45527,3.06,72426.8,-25.21,-59.21,-59.71,0,*60
1483833669.87,45528,3.06,72430.8,-25.21,-59.13,-59.95,0,*64
1483833671.1,45529,3.13,72432.8,-25.23,-59.21,-59.71,0,*6C
1483833672.4,45530,3.06,72430.8,-25.21,-58.97,-59.63,0,*69
1483833673.66,45531,3.06,72432.0,-25.21,-59.13,-59.71,0,*66
1483833674.92,45532,3.06,72426.8,-25.21,-59.13,-59.71,0,*65
1483833676.18,45533,3.06,72428.3,-25.21,-59.13,-59.63,0,*67
1483833677.45,45534,3.06,72426.3,-25.23,-58.97,-59.63,0,*6F
1483833678.69,45535,3.06,72428.8,-25.23,-59.13,-59.71,0,*60
1483833679.92,45536,3.06,72430.3,-25.23,-59.13,-59.71,0,*63
1483833681.21,45537,3.06,72426.8,-25.21,-58.97,-59.71,0,*6D
1483833682.48,45538,3.06,72430.0,-25.23,-58.97,-59.63,0,*63
1483833683.74,45539,3.06,72428.0,-25.21,-59.21,-59.71,0,*6F
1483833685.0,45540,3.06,72428.5,-25.21,-59.21,-59.71,0,*61
1483833686.26,45541,3.06,72428.0,-25.21,-59.13,-59.63,0,*62
1483833687.5,45542,3.06,72430.0,-25.23,-59.13,-59.71,0,*60
1483833688.74,45543,3.06,72434.3,-25.23,-59.13,-59.63,0,*62
1483833689.95,45544,3.06,72426.5,-25.23,-58.73,-59.37,0,*63
1483833691.19,45545,3.06,72424.0,-25.23,-58.73,-59.63,0,*63
1483833692.45,45546,3.06,72420.8,-25.21,-59.13,-59.71,0,*66
1483833693.66,45547,3.06,72428.5,-25.23,-59.37,-59.87,0,*6A
1483833694.92,45548,3.06,72428.5,-25.21,-59.13,-59.63,0,*6B
1483833696.18,45549,3.06,72428.0,-25.23,-58.89,-59.47,0,*6C
1483833697.42,45550,3.06,72432.3,-25.21,-59.13,-59.87,0,*68
1483833698.65,45551,3.06,72430.3,-25.23,-58.89,-59.21,0,*65
1483833699.92,45552,3.06,72428.3,-25.23,-58.97,-59.63,0,*6F
1483833701.22,45553,3.06,72432.8,-25.21,-58.97,-59.63,0,*6C
1483833702.46,45554,3.06,72428.3,-25.23,-59.13,-59.63,0,*64
1483833703.69,45555,3.06,72428.8,-25.23,-59.13,-59.71,0,*66
1483833704.93,45556,3.13,72438.3,-25.23,-58.89,-59.21,0,*62
1483833706.16,45557,3.06,72428.0,-25.21,-58.65,-59.21,0,*63
1483833707.42,45558,3.06,72434.5,-25.21,-58.89,-59.37,0,*69
1483833708.66,45559,3.06,72432.3,-25.23,-58.89,-59.37,0,*6A
1483833709.87,45560,3.06,72432.0,-25.23,-58.73,-59.37,0,*65
1483833711.11,45561,3.06,72432.0,-25.21,-58.73,-59.21,0,*61
1483833712.39,45562,3.06,72430.5,-25.21,-58.97,-59.47,0,*68
1483833713.63,45563,3.06,72432.3,-25.23,-59.13,-59.63,0,*60
1483833714.88,45564,3.06,72436.5,-25.23,-59.13,-59.63,0,*67
1483833716.11,45565,3.06,72426.3,-25.21,-58.73,-59.37,0,*62
1483833717.35,45566,3.06,72424.8,-25.23,-58.89,-59.37,0,*66
1483833718.58,45567,3.06,72430.8,-25.21,-59.13,-59.87,0,*6C
1483833719.84,45568,3.06,72430.3,-25.21,-59.21,-59.71,0,*6B
1483833721.13,45569,3.06,72432.3,-25.21,-58.97,-59.63,0,*65
1483833722.37,45570,3.06,72430.3,-25.21,-58.73,-59.37,0,*66
1483833723.6,45571,3.06,72434.0,-25.21,-58.57,-59.13,0,*67
1483833724.83,45572,3.06,72430.0,-25.21,-58.73,-59.21,0,*63
1483833726.12,45573,3.06,72426.0,-25.21,-58.97,-59.47,0,*68
1483833727.42,45574,3.06,72432.8,-25.21,-58.97,-59.63,0,*69
1483833728.62,45575,3.06,72432.0,-25.23,-59.21,-59.87,0,*6C
1483833729.92,45576,3.13,72438.3,-25.21,-58.97,-59.63,0,*6B
1483833731.18,45577,3.06,72430.8,-25.21,-58.89,-59.37,0,*64
1483833732.42,45578,3.06,72432.8,-25.23,-58.89,-59.37,0,*69
1483833733.65,45579,3.06,72432.8,-25.21,-58.65,-59.21,0,*6F
1483833734.88,45580,3.06,72434.3,-25.21,-58.57,-59.13,0,*69
1483833736.12,45581,3.06,72436.3,-25.21,-58.65,-59.21,0,*68
1483833737.37,45582,3.06,72436.5,-25.21,-58.73,-59.47,0,*6C
1483833738.66,45583,3.06,72434.8,-25.21,-58.89,-59.47,0,*68
1483833739.89,45584,3.06,72434.0,-25.21,-58.73,-59.37,0,*6D
1483833741.19,45585,3.06,72436.3,-25.21,-58.97,-59.63,0,*67
1483833742.45,45586,3.06,72434.5,-25.21,-59.13,-59.63,0,*69
1483833743.74,45587,3.06,72436.0,-25.21,-58.97,-59.71,0,*66
1483833745.03,45588,3.06,72438.0,-25.21,-58.97,-59.47,0,*6C
1483833746.3,45589,3.06,72436.8,-25.21,-58.89,-59.37,0,*65
1483833747.56,45590,3.06,72438.0,-25.23,-58.97,-59.47,0,*67
1483833748.8,45591,3.06,72436.0,-25.23,-58.97,-59.37,0,*61
1483833750.04,45592,3.06,72434.0,-25.23,-59.13,-59.71,0,*6D
1483833751.3,45593,3.06,72432.8,-25.21,-59.13,-59.63,0,*6D
1483833752.54,45594,3.06,72432.8,-25.21,-59.37,-59.87,0,*66
1483833753.83,45595,3.06,72436.8,-25.21,-58.97,-59.63,0,*66
1483833755.06,45596,3.06,72432.3,-25.21,-59.21,-59.95,0,*60
1483833756.3,45597,3.06,72434.3,-25.23,-59.21,-59.63,0,*6A
1483833757.54,45598,3.06,72434.0,-25.23,-58.89,-59.37,0,*67
1483833758.78,45599,3.06,72434.3,-25.23,-58.73,-59.47,0,*64
1483833760.04,45600,3.06,72438.3,-25.23,-58.89,-59.47,0,*62
1483833761.33,45601,3.06,72432.5,-25.21,-58.89,-59.47,0,*61
1483833762.56,45602,3.06,72436.3,-25.21,-58.73,-59.37,0,*60
1483833763.85,45603,3.06,72436.5,-25.21,-58.97,-59.63,0,*6A
1483833765.12,45604,3.06,72436.5,-25.21,-59.13,-59.63,0,*60
1483833766.41,45605,3.06,72434.3,-25.21,-58.97,-59.71,0,*6F
1483833767.67,45606,3.06,72436.3,-25.21,-58.97,-59.37,0,*6E
1483833768.88,45607,3.06,72434.8,-25.23,-59.21,-59.87,0,*6A
1483833770.12,45608,3.06,72434.8,-25.23,-59.13,-59.63,0,*6E
1483833771.36,45609,3.06,72434.0,-25.23,-59.21,-59.71,0,*6D
1483833772.61,45610,3.06,72432.3,-25.21,-59.13,-59.71,0,*66
1483833773.82,45611,3.06,72436.3,-25.23,-58.65,-59.13,0,*61
1483833775.06,45612,3.06,72438.3,-25.21,-58.73,-59.37,0,*61
1483833776.32,45613,3.06,72436.3,-25.23,-58.97,-59.47,0,*6F
1483833777.53,45614,3.06,72436.5,-25.23,-58.73,-59.37,0,*65
1483833778.8,45615,3.06,72436.3,-25.23,-58.97,-59.63,0,*6F
1483833780.07,45616,3.06,72436.3,-25.21,-59.13,-59.63,0,*63
1483833781.33,45617,3.06,72432.5,-25.23,-58.97,-59.47,0,*6B
1483833782.57,45618,3.06,72434.5,-25.23,-58.97,-59.37,0,*63
1483833783.84,45619,3.06,72432.3,-25.23,-58.89,-59.47,0,*6A
1483833785.1,45620,3.06,72434.5,-25.21,-59.13,-59.71,0,*65
1483833786.3,45621,3.06,72434.0,-25.23,-59.21,-59.95,0,*6D
1483833787.54,45622,3.06,72434.5,-25.21,-59.37,-59.87,0,*68
1483833788.77,45623,3.06,72434.8,-25.21,-59.21,-59.87,0,*6E
1483833790.03,45624,3.06,72432.0,-25.21,-59.13,-59.63,0,*62
1483833791.24,45625,3.06,72432.0,-25.23,-59.21,-59.87,0,*6A
1483833792.45,45626,3.06,72432.8,-25.23,-59.37,-59.95,0,*6D
1483833793.65,45627,3.06,72434.3,-25.23,-59.21,-59.87,0,*68
1483833794.86,45628,3.06,72434.3,-25.23,-59.13,-59.87,0,*66
1483833796.09,45629,3.06,72430.8,-25.25,-59.21,-59.87,0,*60
1483833797.33,45630,3.06,72432.8,-25.23,-59.13,-59.63,0,*65
1483833798.6,45631,3.06,72438.3,-25.23,-58.97,-59.63,0,*69
1483833799.89,45632,3.06,72428.8,-25.29,-58.97,-59.47,0,*66
1483833801.19,45633,3.06,72436.5,-25.25,-58.97,-59.71,0,*6E
1483833802.48,45634,3.06,72434.3,-25.25,-58.89,-59.47,0,*63
1483833803.71,45635,3.06,72432.5,-25.25,-58.73,-59.37,0,*60
1483833805.01,45636,3.06,72434.5,-25.25,-58.97,-59.63,0,*68
1483833806.28,45637,3.06,72432.3,-25.25,-59.13,-59.63,0,*64
1483833807.54,45638,3.06,72436.0,-25.25,-59.13,-59.71,0,*68
1483833808.83,45639,3.06,72434.0,-25.25,-58.97,-59.47,0,*61
1483833810.13,45640,3.06,72436.8,-25.25,-58.97,-59.63,0,*69
1483833811.42,45641,3.06,72436.8,-25.29,-58.97,-59.55,0,*61
1483833812.68,45642,3.06,72432.3,-25.25,-59.13,-59.71,0,*65
1483833813.97,45643,3.06,72434.3,-25.25,-58.97,-59.71,0,*69
1483833815.24,45644,3.06,72434.5,-25.25,-59.13,-59.63,0,*60
1483833816.51,45645,3.06,72436.0,-25.25,-59.13,-59.63,0,*61
1483833817.77,45646,3.06,72436.5,-25.25,-59.21,-59.71,0,*60
1483833819.04,45647,3.06,72436.3,-25.25,-59.13,-59.63,0,*63
1483833820.3,45648,3.06,72436.3,-25.25,-59.13,-59.47,0,*6A
1483833821.54,45649,3.06,72434.5,-25.25,-58.65,-59.13,0,*6A
1483833822.84,45650,3.06,72434.8,-25.25,-58.97,-59.63,0,*68
1483833824.1,45651,3.06,72434.3,-25.25,-59.13,-59.71,0,*67
1483833825.36,45652,3.06,72434.3,-25.25,-59.47,-59.95,0,*6F
1483833826.63,45653,3.06,72436.3,-25.25,-59.13,-59.63,0,*66
1483833827.89,45654,3.06,72436.0,-25.29,-59.21,-59.71,0,*6F
1483833829.15,45655,3.06,72432.5,-25.29,-59.21,-59.71,0,*6E
1483833830.4,45656,3.06,72434.8,-25.29,-59.29,-59.95,0,*6F
1483833831.66,45657,3.06,72438.0,-25.29,-59.05,-59.79,0,*62
1483833832.94,45658,3.06,72436.3,-25.29,-59.05,-59.55,0,*63
1483833834.18,45659,3.06,72432.5,-25.25,-58.73,-59.37,0,*6A
1483833835.48,45660,3.06,72436.3,-25.29,-59.05,-59.63,0,*6D
1483833836.77,45661,3.06,72436.8,-25.29,-58.97,-59.47,0,*60
1483833838.0,45662,3.06,72438.0,-25.29,-58.73,-59.21,0,*69
1483833839.24,45663,3.06,72438.3,-25.25,-58.73,-59.37,0,*63
1483833840.47,45664,3.06,72432.8,-25.29,-58.65,-59.21,0,*68
1483833841.71,45665,3.06,72430.8,-25.25,-58.65,-59.21,0,*65
1483833843.0,45666,3.06,72428.3,-25.29,-58.97,-59.47,0,*67
1483833844.29,45667,3.06,72430.8,-25.29,-59.05,-59.55,0,*6F
1483833845.53,45668,3.06,72428.8,-25.29,-59.29,-59.79,0,*60
1483833846.79,45669,3.06,72432.5,-25.29,-59.21,-59.71,0,*61
1483833848.02,45670,3.06,72436.3,-25.25,-59.21,-59.79,0,*6D
1483833849.26,45671,3.06,72432.0,-25.29,-58.73,-59.21,0,*6B
1483833850.53,45672,3.06,72434.3,-25.29,-58.65,-59.05,0,*69
1483833851.79,45673,3.06,72436.5,-25.29,-58.81,-59.29,0,*6C
1483833853.03,45674,3.06,72434.0,-25.29,-58.65,-59.21,0,*69
1483833854.26,45675,3.06,72436.0,-25.29,-58.73,-59.21,0,*6F
1483833855.5,45676,3.06,72434.3,-25.25,-58.65,-59.13,0,*66
1483833856.76,45677,3.06,72432.3,-25.29,-58.73,-59.47,0,*6D
1483833858.05,45678,3.06,72432.5,-25.29,-58.81,-59.47,0,*6F
1483833859.28,45679,3.06,72434.8,-25.25,-58.57,-59.21,0,*69
1483833860.52,45680,3.06,72434.0,-25.29,-58.65,-59.21,0,*62
1483833861.75,45681,3.06,72430.3,-25.29,-58.65,-59.21,0,*63
1483833862.98,45682,3.06,72434.0,-25.29,-58.73,-59.21,0,*67
1483833864.22,45683,3.06,72432.0,-25.25,-58.65,-59.13,0,*6C
1483833865.46,45684,3.06,72432.5,-25.25,-58.65,-59.13,0,*6B
1483833866.7,45685,3.06,72434.3,-25.29,-58.73,-59.29,0,*68
1483833868.0,45686,3.06,72434.0,-25.25,-58.41,-58.97,0,*62
1483833869.24,45687,3.06,72432.8,-25.25,-58.65,-59.13,0,*68
1483833870.5,45688,3.06,72430.3,-25.25,-58.41,-59.13,0,*61
1483833871.77,45689,3.06,72428.3,-25.25,-58.57,-58.97,0,*6A
1483833873.03,45690,3.06,72432.8,-25.29,-58.49,-59.05,0,*6B
1483833874.33,45691,3.06,72434.0,-25.25,-58.41,-58.97,0,*64
1483833875.63,45692,3.06,72432.8,-25.25,-58.41,-58.97,0,*67
1483833876.86,45693,3.06,72426.3,-25.25,-58.57,-59.21,0,*6D
1483833878.13,45694,3.06,72426.5,-25.25,-59.13,-59.63,0,*6D
1483833879.37,45695,3.06,72424.5,-25.25,-58.73,-59.37,0,*6A
1483833880.66,45696,3.06,72434.8,-25.25,-58.89,-59.47,0,*6B
1483833881.89,45697,3.06,72428.5,-25.25,-58.65,-59.21,0,*68
1483833883.1,45698,3.06,72434.0,-25.23,-58.65,-59.21,0,*61
1483833884.31,45699,3.06,72432.0,-25.23,-58.57,-59.13,0,*60
1483833885.58,45700,3.06,72430.0,-25.23,-58.41,-58.89,0,*64
1483833886.85,45701,3.06,72428.0,-25.23,-58.41,-58.89,0,*65
1483833888.11,45702,3.06,72432.5,-25.25,-58.17,-58.73,0,*66
1483833889.39,45703,3.06,72434.0,-25.23,-58.33,-58.97,0,*6D
1483833890.65,45704,3.06,72426.5,-25.23,-58.41,-58.89,0,*60
1483833891.92,45705,3.06,72432.5,-25.23,-58.41,-58.89,0,*61
1483833893.21,45706,3.06,72430.0,-25.21,-58.41,-58.97,0,*6F
1483833894.49,45707,3.06,72428.5,-25.23,-58.41,-58.97,0,*6C
1483833895.7,45708,3.06,72426.0,-25.23,-58.73,-59.37,0,*69
1483833896.93,45709,3.06,72432.5,-25.21,-58.65,-59.13,0,*6B
1483833898.19,45710,3.06,72430.3,-25.21,-58.73,-59.47,0,*65
1483833899.45,45711,3.06,72432.8,-25.23,-58.97,-59.47,0,*6C
1483833900.71,45712,3.06,72428.0,-25.23,-58.89,-59.47,0,*60
1483833901.95,45713,3.06,72430.3,-25.21,-58.57,-59.13,0,*61
1483833903.18,45714,3.06,72424.5,-25.21,-58.57,-59.13,0,*66
1483833904.42,45715,3.06,72434.8,-25.23,-58.97,-59.37,0,*6F
1483833905.63,45716,3.06,72436.0,-25.23,-58.73,-59.37,0,*66
1483833906.86,45717,3.06,72434.8,-25.21,-58.73,-59.21,0,*62
1483833908.09,45718,3.06,72434.0,-25.21,-58.57,-59.21,0,*6B
1483833909.3,45719,3.06,72434.8,-25.23,-58.73,-59.21,0,*6E
1483833910.51,45720,3.06,72432.3,-25.23,-58.65,-59.13,0,*62
1483833911.74,45721,3.06,72434.5,-25.21,-58.73,-59.21,0,*67
1483833912.95,45722,3.06,72434.3,-25.23,-58.73,-59.13,0,*67
1483833914.18,45723,3.06,72438.8,-25.21,-58.65,-59.21,0,*62
1483833915.48,45724,3.06,72430.8,-25.21,-58.33,-58.97,0,*6A
1483833916.71,45725,3.06,72434.8,-25.21,-58.65,-59.21,0,*64
1483833918.01,45726,3.06,72430.5,-25.21,-58.41,-58.97,0,*6D
1483833919.3,45727,3.06,72438.0,-25.21,-58.41,-58.89,0,*63
1483833920.51,45728,3.06,72430.0,-25.19,-58.01,-58.49,0,*6F
1483833921.75,45729,3.06,72432.0,-25.19,-57.85,-58.25,0,*67
1483833922.99,45730,3.06,72432.8,-25.19,-57.61,-58.01,0,*63
1483833924.25,45731,3.06,72436.5,-25.17,-57.37,-57.77,0,*61
1483833925.5,45732,3.06,72432.3,-25.17,-57.37,-58.01,0,*6C
1483833926.76,45733,3.06,72436.0,-25.17,-57.61,-58.01,0,*6E
1483833928.02,45734,3.06,72438.5,-25.19,-57.61,-58.25,0,*61
1483833929.29,45735,3.06,72432.5,-25.11,-57.53,-58.01,0,*6F
1483833930.54,45736,3.06,72438.5,-25.11,-57.45,-58.01,0,*6B
1483833931.79,45737,3.06,72436.3,-25.11,-57.93,-58.41,0,*65
1483833933.06,45738,3.06,72434.8,-25.11,-57.69,-58.49,0,*67
1483833934.3,45739,3.06,72438.8,-25.11,-58.01,-58.49,0,*67
1483833935.6,45740,3.06,72436.0,-25.11,-57.53,-58.17,0,*6A
1483833936.87,45741,3.06,72436.0,-25.11,-57.53,-58.01,0,*6C
1483833938.13,45742,3.06,72434.0,-25.11,-57.45,-58.17,0,*6F
1483833939.42,45743,3.06,72438.5,-25.11,-57.69,-58.17,0,*60
1483833940.67,45744,3.06,72436.0,-25.09,-57.85,-58.33,0,*6A
1483833941.9,45745,3.06,72442.0,-25.09,-57.93,-58.41,0,*69
1483833943.12,45746,3.06,72436.5,-25.09,-58.09,-58.49,0,*6E
1483833944.34,45747,3.06,72438.5,-25.09,-58.09,-58.73,0,*66
1483833945.58,45748,3.06,72432.3,-25.07,-58.09,-58.65,0,*60
1483833946.82,45749,3.06,72432.5,-25.09,-58.09,-58.89,0,*6D
1483833948.08,45750,3.06,72428.8,-25.11,-58.41,-59.13,0,*62
1483833949.37,45751,3.06,72428.0,-25.07,-58.41,-58.89,0,*66
1483833950.58,45752,3.06,72430.0,-25.09,-58.73,-59.13,0,*68
1483833951.82,45753,3.06,72430.5,-25.09,-58.89,-59.37,0,*6A
1483833953.03,45754,3.06,72430.8,-25.09,-58.65,-59.13,0,*69
1483833954.29,45755,3.06,72428.8,-25.09,-58.89,-59.47,0,*6B
1483833955.55,45756,3.06,72426.0,-25.11,-59.13,-59.63,0,*65
1483833956.82,45757,3.06,72426.0,-25.09,-58.97,-59.47,0,*66
1483833958.05,45758,3.06,72426.5,-25.09,-59.13,-59.47,0,*64
1483833959.28,45759,3.06,72428.0,-25.09,-59.13,-59.47,0,*65
1483833960.52,45760,3.06,72426.8,-25.09,-58.97,-59.37,0,*65
1483833961.75,45761,3.06,72426.0,-25.11,-58.65,-59.21,0,*67
1483833962.96,45762,3.06,72428.3,-25.09,-58.73,-59.21,0,*6A
1483833964.19,45763,3.06,72434.3,-25.11,-58.49,-59.13,0,*6A
1483833965.4,45764,3.06,72432.5,-25.09,-58.49,-59.21,0,*65
1483833966.6,45765,3.06,72434.0,-25.09,-58.65,-59.13,0,*6B
1483833967.87,45766,3.06,72436.8,-25.11,-58.49,-58.97,0,*62
1483833969.13,45767,3.06,72434.8,-25.09,-58.17,-58.89,0,*6E
1483833970.34,45768,3.06,72430.0,-25.09,-58.49,-59.21,0,*69
1483833971.6,45769,3.06,72432.0,-25.11,-58.49,-58.97,0,*6D
1483833972.87,45770,3.06,72432.3,-25.09,-58.33,-58.89,0,*6E
1483833974.16,45771,3.06,72430.8,-25.11,-58.41,-58.89,0,*63
1483833975.4,45772,3.06,72416.8,-25.09,-58.33,-58.73,0,*69
1483833976.63,45773,3.06,72424.3,-25.11,-58.65,-59.21,0,*64
1483833977.9,45774,3.06,72428.5,-25.11,-58.89,-59.37,0,*66
1483833979.18,45775,3.06,72430.3,-25.11,-58.17,-58.89,0,*64
1483833980.39,45776,3.06,72434.8,-25.09,-58.65,-59.37,0,*6F
1483833981.63,45777,3.06,72438.8,-25.09,-58.97,-59.21,0,*64
1483833982.84,45778,3.06,72442.0,-25.09,-58.73,-59.37,0,*66
1483833984.05,45779,3.06,72438.5,-25.09,-58.49,-59.13,0,*68
1483833985.28,45780,3.06,72432.3,-25.09,-58.49,-58.89,0,*6C
1483833986.55,45781,3.06,72434.0,-25.11,-58.49,-58.97,0,*6B
1483833987.78,45782,3.06,72430.3,-25.09,-58.17,-58.73,0,*60
1483833989.08,45783,3.06,72426.5,-25.07,-58.33,-58.89,0,*6C
1483833990.32,45784,3.06,72422.5,-25.09,-58.49,-58.89,0,*68
1483833991.58,45785,3.06,72426.8,-25.07,-58.49,-58.97,0,*68
1483833992.78,45786,3.06,72424.5,-25.09,-58.73,-59.21,0,*60
1483833993.99,45787,3.06,72432.8,-25.09,-58.73,-59.37,0,*66
1483833995.2,45788,3.06,72432.0,-25.09,-58.73,-59.21,0,*6E
1483833996.46,45789,3.06,72434.8,-25.07,-58.89,-59.37,0,*63
1483833997.72,45790,3.06,72430.5,-25.07,-58.89,-59.13,0,*6D
1483833998.93,45791,3.06,72438.8,-25.09,-58.73,-59.21,0,*66
1483834000.16,45792,3.06,72434.5,-25.07,-58.73,-59.13,0,*6A
1483834001.4,45793,3.06,72436.8,-25.09,-58.49,-58.97,0,*61
1483834002.67,45794,3.06,72440.5,-25.09,-58.33,-58.97,0,*6B
1483834003.91,45795,3.06,72436.3,-25.09,-58.49,-58.89,0,*68
1483834005.2,45796,3.06,72436.3,-25.07,-58.17,-58.89,0,*6E
1483834006.5,45797,3.06,72440.8,-25.07,-57.69,-58.33,0,*68
1483834007.76,45798,3.06,72438.0,-25.07,-57.85,-58.41,0,*60
1483834009.05,45799,3.06,72438.8,-25.03,-57.77,-58.25,0,*6A
1483834010.3,45800,3.06,72438.5,-25.07,-57.93,-58.41,0,*69
1483834011.56,45801,3.06,72438.3,-25.07,-57.93,-58.41,0,*68
1483834012.83,45802,3.06,72442.3,-25.03,-57.85,-58.33,0,*6D
1483834014.07,45803,3.06,72440.3,-25.01,-57.85,-58.41,0,*6B
1483834015.36,45804,3.06,72442.8,-24.99,-57.77,-58.17,0,*62
1483834016.6,45805,3.06,72440.3,-24.99,-57.45,-58.01,0,*65
1483834017.84,45806,3.06,72442.5,-25.01,-57.77,-58.09,0,*6F
1483834019.09,45807,3.06,72442.3,-25.01,-57.61,-58.01,0,*61
1483834020.38,45808,3.06,72446.3,-24.99,-57.53,-58.17,0,*68
1483834021.64,45809,3.06,72436.8,-24.99,-57.93,-58.25,0,*64
1483834022.88,45810,3.06,72440.3,-24.99,-58.01,-58.49,0,*62
1483834024.15,45811,3.06,72428.0,-24.97,-58.33,-58.97,0,*6F
1483834025.39,45812,3.06,72436.0,-24.97,-58.57,-59.05,0,*64
1483834026.6,45813,3.06,72436.3,-24.97,-58.01,-58.57,0,*60
1483834027.81,45814,3.06,72430.3,-24.97,-57.93,-58.49,0,*6C
1483834029.07,45815,3.06,72428.5,-24.95,-57.93,-58.25,0,*65
1483834030.34,45816,3.06,72426.3,-24.97,-57.77,-58.33,0,*69
1483834031.6,45817,3.06,72420.8,-24.95,-58.17,-58.57,0,*61
1483834032.84,45818,3.06,72420.5,-24.95,-58.01,-58.49,0,*66
1483834034.08,45819,3.06,72422.5,-24.97,-57.93,-58.33,0,*6C
1483834035.37,45820,3.06,72426.0,-24.95,-57.69,-58.25,0,*66
1483834036.63,45821,3.06,72416.8,-24.95,-57.93,-58.25,0,*62
1483834037.87,45822,3.06,72418.3,-24.95,-58.01,-58.57,0,*60
1483834039.1,45823,3.06,72404.8,-24.91,-57.93,-58.65,0,*60
1483834040.37,45824,3.06,72394.0,-24.91,-57.93,-58.41,0,*61
1483834041.61,45825,3.06,72390.0,-24.91,-58.09,-58.65,0,*6A
1483834042.85,45826,3.06,72392.3,-24.91,-58.09,-58.49,0,*67
1483834044.12,45827,3.06,72396.3,-24.91,-57.85,-58.25,0,*67
1483834045.36,45828,3.06,72406.8,-24.91,-57.85,-58.49,0,*62
1483834046.61,45829,3.06,72412.5,-24.89,-57.85,-58.33,0,*67
1483834047.85,45830,3.06,72420.0,-24.89,-57.85,-58.33,0,*6F
1483834049.07,45831,3.06,72424.0,-24.89,-58.01,-58.57,0,*6F
1483834050.31,45832,3.06,72426.5,-24.89,-58.01,-58.41,0,*6B
1483834051.52,45833,3.06,72434.8,-24.89,-57.85,-58.57,0,*6E
1483834052.76,45834,3.06,72422.8,-24.89,-58.17,-58.57,0,*6D
1483834054.0,45835,3.06,72422.0,-24.89,-58.17,-58.65,0,*6D
1483834055.23,45836,3.06,72424.3,-24.89,-58.57,-59.05,0,*6D
1483834056.5,45837,3.06,72426.5,-24.89,-58.41,-58.89,0,*6E
1483834057.73,45838,3.06,72430.3,-24.89,-58.57,-59.05,0,*63
1483834059.0,45839,3.06,72430.3,-24.89,-58.41,-58.89,0,*60
1483834060.26,45840,3.06,72434.3,-24.89,-58.41,-58.81,0,*66
1483834061.47,45841,3.06,72428.5,-24.89,-58.57,-59.13,0,*6A
1483834062.71,45842,3.06,72434.8,-24.89,-58.89,-59.37,0,*6C
1483834063.95,45843,3.06,72442.0,-24.89,-58.89,-59.37,0,*6D
1483834065.24,45844,3.06,72444.0,-24.91,-58.97,-59.47,0,*6B
1483834066.47,45845,3.06,72442.3,-24.89,-58.25,-58.57,0,*6A
1483834067.74,45846,3.06,72438.8,-24.89,-58.17,-58.89,0,*6B
1483834069.01,45847,3.06,72436.3,-24.89,-58.33,-58.89,0,*6C
1483834070.27,45848,3.06,72432.8,-24.89,-58.41,-58.89,0,*66
1483834071.54,45849,3.06,72434.0,-24.89,-58.33,-58.81,0,*6A
1483834072.79,45850,3.06,72428.0,-24.89,-58.33,-58.65,0,*68
1483834074.0,45851,3.06,72420.0,-24.89,-58.09,-58.57,0,*61
1483834075.22,45852,3.06,72410.8,-24.89,-58.01,-58.57,0,*6A
1483834076.43,45853,3.06,72414.3,-24.89,-58.09,-58.57,0,*63
1483834077.67,45854,3.06,72416.0,-24.89,-58.01,-58.41,0,*6B
1483834078.94,45855,3.06,72418.0,-24.89,-58.33,-59.05,0,*6A
1483834080.17,45856,3.06,72428.5,-24.89,-58.65,-59.05,0,*6A
1483834081.44,45857,3.06,72430.0,-24.89,-58.33,-59.05,0,*68
1483834082.71,45858,3.06,72426.0,-24.89,-58.41,-58.89,0,*67
1483834083.97,45859,3.06,72424.5,-24.89,-58.41,-58.89,0,*66
1483834085.24,45860,3.06,72424.3,-24.89,-58.33,-58.89,0,*69
1483834086.49,45861,3.06,72432.8,-24.89,-58.33,-58.65,0,*6A
1483834087.72,45862,3.06,72428.8,-24.89,-58.17,-58.57,0,*6E
1483834088.93,45863,3.06,72428.8,-24.89,-57.85,-58.57,0,*6B
1483834090.18,45864,3.06,72428.8,-24.89,-57.61,-58.09,0,*6D
1483834091.47,45865,3.06,72432.3,-24.87,-57.77,-58.17,0,*6A
1483834092.68,45866,3.06,72432.0,-24.89,-57.37,-57.85,0,*67
1483834093.95,45867,3.06,72432.3,-24.87,-57.85,-58.33,0,*63
1483834095.22,45868,3.06,72432.3,-24.87,-57.53,-58.01,0,*66
1483834096.46,45869,3.06,72432.5,-24.83,-57.45,-57.93,0,*60
1483834097.75,45870,3.06,72430.0,-24.83,-57.69,-58.01,0,*62
1483834099.0,45871,3.06,72428.8,-24.81,-57.53,-58.09,0,*60